Year,Month,Day,Hour,Minute,Value (Times are PST for temperature in C)
2018,05,24,00,00,13.20
2018,05,24,00,01,13.10
2018,05,24,00,02,13.10
2018,05,24,00,03,13.10
2018,05,24,00,04,13.10
2018,05,24,00,05,13.00
2018,05,24,00,06,13.00
2018,05,24,00,07,13.00
2018,05,24,00,08,12.90
2018,05,24,00,09,12.90
2018,05,24,00,10,12.90
2018,05,24,00,11,12.90
2018,05,24,00,12,12.90
2018,05,24,00,13,12.90
2018,05,24,00,14,12.80
2018,05,24,00,15,12.80
2018,05,24,00,16,12.80
2018,05,24,00,17,12.80
2018,05,24,00,18,12.80
2018,05,24,00,19,12.80
2018,05,24,00,20,12.80
2018,05,24,00,21,12.80
2018,05,24,00,22,12.80
2018,05,24,00,23,12.80
2018,05,24,00,24,12.80
2018,05,24,00,25,12.80
2018,05,24,00,26,12.80
2018,05,24,00,27,12.80
2018,05,24,00,28,12.80
2018,05,24,00,29,12.80
2018,05,24,00,30,12.80
2018,05,24,00,31,12.80
2018,05,24,00,32,12.80
2018,05,24,00,33,12.80
2018,05,24,00,34,12.80
2018,05,24,00,35,12.80
2018,05,24,00,36,12.80
2018,05,24,00,37,12.80
2018,05,24,00,38,12.80
2018,05,24,00,39,12.80
2018,05,24,00,40,12.80
2018,05,24,00,41,12.80
2018,05,24,00,42,12.80
2018,05,24,00,43,12.80
2018,05,24,00,44,12.80
2018,05,24,00,45,12.80
2018,05,24,00,46,12.80
2018,05,24,00,47,12.80
2018,05,24,00,48,12.80
2018,05,24,00,49,12.80
2018,05,24,00,50,12.80
2018,05,24,00,51,12.80
2018,05,24,00,52,12.80
2018,05,24,00,53,12.80
2018,05,24,00,54,12.80
2018,05,24,00,55,12.80
2018,05,24,00,56,12.80
2018,05,24,00,57,12.80
2018,05,24,00,58,12.80
2018,05,24,00,59,12.70
2018,05,24,01,00,12.70
2018,05,24,01,01,12.70
2018,05,24,01,02,12.70
2018,05,24,01,03,12.70
2018,05,24,01,04,12.70
2018,05,24,01,05,12.70
2018,05,24,01,06,12.70
2018,05,24,01,07,12.70
2018,05,24,01,08,12.70
2018,05,24,01,09,12.70
2018,05,24,01,10,12.70
2018,05,24,01,11,12.60
2018,05,24,01,12,12.60
2018,05,24,01,13,12.60
2018,05,24,01,14,12.60
2018,05,24,01,15,12.60
2018,05,24,01,16,12.60
2018,05,24,01,17,12.60
2018,05,24,01,18,12.60
2018,05,24,01,19,12.60
2018,05,24,01,20,12.60
2018,05,24,01,21,12.50
2018,05,24,01,22,12.50
2018,05,24,01,23,12.50
2018,05,24,01,24,12.50
2018,05,24,01,25,12.50
2018,05,24,01,26,12.50
2018,05,24,01,27,12.50
2018,05,24,01,28,12.50
2018,05,24,01,29,12.50
2018,05,24,01,30,12.40
2018,05,24,01,31,12.40
2018,05,24,01,32,12.40
2018,05,24,01,33,12.40
2018,05,24,01,34,12.40
2018,05,24,01,35,12.40
2018,05,24,01,36,12.40
2018,05,24,01,37,12.40
2018,05,24,01,38,12.30
2018,05,24,01,39,12.30
2018,05,24,01,40,12.30
2018,05,24,01,41,12.30
2018,05,24,01,42,12.30
2018,05,24,01,43,12.30
2018,05,24,01,44,12.30
2018,05,24,01,45,12.30
2018,05,24,01,46,12.30
2018,05,24,01,47,12.30
2018,05,24,01,48,12.30
2018,05,24,01,49,12.30
2018,05,24,01,50,12.30
2018,05,24,01,51,12.30
2018,05,24,01,52,12.30
2018,05,24,01,53,12.30
2018,05,24,01,54,12.30
2018,05,24,01,55,12.30
2018,05,24,01,56,12.30
2018,05,24,01,57,12.30
2018,05,24,01,58,12.30
2018,05,24,01,59,12.30
2018,05,24,02,00,12.30
2018,05,24,02,01,12.30
2018,05,24,02,02,12.20
2018,05,24,02,03,12.20
2018,05,24,02,04,12.20
2018,05,24,02,05,12.20
2018,05,24,02,06,12.20
2018,05,24,02,07,12.20
2018,05,24,02,08,12.20
2018,05,24,02,09,12.20
2018,05,24,02,10,12.20
2018,05,24,02,11,12.20
2018,05,24,02,12,12.20
2018,05,24,02,13,12.20
2018,05,24,02,14,12.20
2018,05,24,02,15,12.20
2018,05,24,02,16,12.20
2018,05,24,02,17,12.20
2018,05,24,02,18,12.20
2018,05,24,02,19,12.20
2018,05,24,02,20,12.20
2018,05,24,02,21,12.20
2018,05,24,02,22,12.20
2018,05,24,02,23,12.20
2018,05,24,02,24,12.20
2018,05,24,02,25,12.20
2018,05,24,02,26,12.20
2018,05,24,02,27,12.20
2018,05,24,02,28,12.20
2018,05,24,02,29,12.20
2018,05,24,02,30,12.20
2018,05,24,02,31,12.20
2018,05,24,02,32,12.20
2018,05,24,02,33,12.20
2018,05,24,02,34,12.20
2018,05,24,02,35,12.20
2018,05,24,02,36,12.20
2018,05,24,02,37,12.20
2018,05,24,02,38,12.20
2018,05,24,02,39,12.20
2018,05,24,02,40,12.20
2018,05,24,02,41,12.20
2018,05,24,02,42,12.20
2018,05,24,02,43,12.20
2018,05,24,02,44,12.20
2018,05,24,02,45,12.20
2018,05,24,02,46,12.20
2018,05,24,02,47,12.20
2018,05,24,02,48,12.20
2018,05,24,02,49,12.20
2018,05,24,02,50,12.20
2018,05,24,02,51,12.20
2018,05,24,02,52,12.20
2018,05,24,02,53,12.20
2018,05,24,02,54,12.20
2018,05,24,02,55,12.20
2018,05,24,02,56,12.20
2018,05,24,02,57,12.20
2018,05,24,02,58,12.10
2018,05,24,02,59,12.10
2018,05,24,03,00,12.10
2018,05,24,03,01,12.10
2018,05,24,03,02,12.10
2018,05,24,03,03,12.10
2018,05,24,03,04,12.10
2018,05,24,03,05,12.10
2018,05,24,03,06,12.10
2018,05,24,03,07,12.10
2018,05,24,03,08,12.10
2018,05,24,03,09,12.10
2018,05,24,03,10,12.00
2018,05,24,03,11,12.00
2018,05,24,03,12,12.00
2018,05,24,03,13,12.00
2018,05,24,03,14,12.00
2018,05,24,03,15,12.00
2018,05,24,03,16,12.00
2018,05,24,03,17,12.00
2018,05,24,03,18,12.00
2018,05,24,03,19,12.00
2018,05,24,03,20,12.00
2018,05,24,03,21,12.00
2018,05,24,03,22,12.00
2018,05,24,03,23,12.00
2018,05,24,03,24,12.00
2018,05,24,03,25,12.00
2018,05,24,03,26,11.90
2018,05,24,03,27,11.90
2018,05,24,03,28,11.90
2018,05,24,03,29,11.90
2018,05,24,03,30,11.90
2018,05,24,03,31,11.90
2018,05,24,03,32,11.90
2018,05,24,03,33,11.90
2018,05,24,03,34,11.90
2018,05,24,03,35,11.90
2018,05,24,03,36,11.90
2018,05,24,03,37,11.90
2018,05,24,03,38,11.90
2018,05,24,03,39,11.90
2018,05,24,03,40,11.90
2018,05,24,03,41,11.90
2018,05,24,03,42,11.90
2018,05,24,03,43,11.90
2018,05,24,03,44,11.90
2018,05,24,03,45,11.90
2018,05,24,03,46,11.90
2018,05,24,03,47,11.90
2018,05,24,03,48,11.90
2018,05,24,03,49,11.90
2018,05,24,03,50,11.90
2018,05,24,03,51,11.90
2018,05,24,03,52,11.90
2018,05,24,03,53,11.90
2018,05,24,03,54,11.90
2018,05,24,03,55,11.90
2018,05,24,03,56,11.90
2018,05,24,03,57,11.90
2018,05,24,03,58,11.90
2018,05,24,03,59,11.90
2018,05,24,04,00,11.90
2018,05,24,04,01,11.90
2018,05,24,04,02,11.90
2018,05,24,04,03,11.90
2018,05,24,04,04,11.90
2018,05,24,04,05,11.90
2018,05,24,04,06,11.90
2018,05,24,04,07,11.90
2018,05,24,04,08,11.90
2018,05,24,04,09,11.90
2018,05,24,04,10,11.90
2018,05,24,04,11,11.90
2018,05,24,04,12,11.90
2018,05,24,04,13,11.90
2018,05,24,04,14,11.90
2018,05,24,04,15,11.90
2018,05,24,04,16,11.90
2018,05,24,04,17,11.90
2018,05,24,04,18,11.90
2018,05,24,04,19,11.90
2018,05,24,04,20,11.90
2018,05,24,04,21,11.90
2018,05,24,04,22,11.90
2018,05,24,04,23,11.90
2018,05,24,04,24,11.90
2018,05,24,04,25,11.90
2018,05,24,04,26,11.90
2018,05,24,04,27,11.90
2018,05,24,04,28,11.90
2018,05,24,04,29,11.90
2018,05,24,04,30,11.90
2018,05,24,04,31,11.80
2018,05,24,04,32,11.80
2018,05,24,04,33,11.80
2018,05,24,04,34,11.80
2018,05,24,04,35,11.80
2018,05,24,04,36,11.80
2018,05,24,04,37,11.80
2018,05,24,04,38,11.80
2018,05,24,04,39,11.80
2018,05,24,04,40,11.80
2018,05,24,04,41,11.80
2018,05,24,04,42,11.80
2018,05,24,04,43,11.80
2018,05,24,04,44,11.80
2018,05,24,04,45,11.80
2018,05,24,04,46,11.80
2018,05,24,04,47,11.80
2018,05,24,04,48,11.80
2018,05,24,04,49,11.80
2018,05,24,04,50,11.80
2018,05,24,04,51,11.80
2018,05,24,04,52,11.80
2018,05,24,04,53,11.80
2018,05,24,04,54,11.80
2018,05,24,04,55,11.80
2018,05,24,04,56,11.80
2018,05,24,04,57,11.80
2018,05,24,04,58,11.80
2018,05,24,04,59,11.80
2018,05,24,05,00,11.80
2018,05,24,05,01,11.80
2018,05,24,05,02,11.80
2018,05,24,05,03,11.80
2018,05,24,05,04,11.80
2018,05,24,05,05,11.80
2018,05,24,05,06,11.80
2018,05,24,05,07,11.80
2018,05,24,05,08,11.80
2018,05,24,05,09,11.80
2018,05,24,05,10,11.80
2018,05,24,05,11,11.80
2018,05,24,05,12,11.80
2018,05,24,05,13,11.80
2018,05,24,05,14,11.80
2018,05,24,05,15,11.80
2018,05,24,05,16,11.80
2018,05,24,05,17,11.80
2018,05,24,05,18,11.80
2018,05,24,05,19,11.80
2018,05,24,05,20,11.80
2018,05,24,05,21,11.80
2018,05,24,05,22,11.80
2018,05,24,05,23,11.80
2018,05,24,05,24,11.80
2018,05,24,05,25,11.80
2018,05,24,05,26,11.80
2018,05,24,05,27,11.80
2018,05,24,05,28,11.80
2018,05,24,05,29,11.80
2018,05,24,05,30,11.80
2018,05,24,05,31,11.80
2018,05,24,05,32,11.80
2018,05,24,05,33,11.80
2018,05,24,05,34,11.80
2018,05,24,05,35,11.80
2018,05,24,05,36,11.80
2018,05,24,05,37,11.80
2018,05,24,05,38,11.80
2018,05,24,05,39,11.80
2018,05,24,05,40,11.80
2018,05,24,05,41,11.80
2018,05,24,05,42,11.80
2018,05,24,05,43,11.80
2018,05,24,05,44,11.80
2018,05,24,05,45,11.80
2018,05,24,05,46,11.80
2018,05,24,05,47,11.80
2018,05,24,05,48,11.80
2018,05,24,05,49,11.80
2018,05,24,05,50,11.80
2018,05,24,05,51,11.80
2018,05,24,05,52,11.80
2018,05,24,05,53,11.80
2018,05,24,05,54,11.80
2018,05,24,05,55,11.80
2018,05,24,05,56,11.80
2018,05,24,05,57,11.80
2018,05,24,05,58,11.80
2018,05,24,05,59,11.80
2018,05,24,06,00,11.80
2018,05,24,06,01,11.90
2018,05,24,06,02,11.90
2018,05,24,06,03,11.90
2018,05,24,06,04,11.90
2018,05,24,06,05,11.90
2018,05,24,06,06,11.90
2018,05,24,06,07,11.90
2018,05,24,06,08,12.00
2018,05,24,06,09,12.00
2018,05,24,06,10,12.00
2018,05,24,06,11,12.00
2018,05,24,06,12,12.00
2018,05,24,06,13,12.00
2018,05,24,06,14,12.00
2018,05,24,06,15,12.10
2018,05,24,06,16,12.10
2018,05,24,06,17,12.10
2018,05,24,06,18,12.10
2018,05,24,06,19,12.10
2018,05,24,06,20,12.20
2018,05,24,06,21,12.20
2018,05,24,06,22,12.20
2018,05,24,06,23,12.20
2018,05,24,06,24,12.20
2018,05,24,06,25,12.20
2018,05,24,06,26,12.20
2018,05,24,06,27,12.20
2018,05,24,06,28,12.20
2018,05,24,06,29,12.20
2018,05,24,06,30,12.20
2018,05,24,06,31,12.30
2018,05,24,06,32,12.30
2018,05,24,06,33,12.30
2018,05,24,06,34,12.30
2018,05,24,06,35,12.30
2018,05,24,06,36,12.30
2018,05,24,06,37,12.30
2018,05,24,06,38,12.30
2018,05,24,06,39,12.30
2018,05,24,06,40,12.30
2018,05,24,06,41,12.40
2018,05,24,06,42,12.40
2018,05,24,06,43,12.40
2018,05,24,06,44,12.50
2018,05,24,06,45,12.50
2018,05,24,06,46,12.50
2018,05,24,06,47,12.50
2018,05,24,06,48,12.60
2018,05,24,06,49,12.60
2018,05,24,06,50,12.60
2018,05,24,06,51,12.60
2018,05,24,06,52,12.60
2018,05,24,06,53,12.70
2018,05,24,06,54,12.70
2018,05,24,06,55,12.70
2018,05,24,06,56,12.70
2018,05,24,06,57,12.70
2018,05,24,06,58,12.80
2018,05,24,06,59,12.80
2018,05,24,07,00,12.80
2018,05,24,07,01,12.90
2018,05,24,07,02,12.90
2018,05,24,07,03,13.00
2018,05,24,07,04,13.00
2018,05,24,07,05,13.00
2018,05,24,07,06,13.10
2018,05,24,07,07,13.10
2018,05,24,07,08,13.10
2018,05,24,07,09,13.20
2018,05,24,07,10,13.20
2018,05,24,07,11,13.30
2018,05,24,07,12,13.30
2018,05,24,07,13,13.30
2018,05,24,07,14,13.30
2018,05,24,07,15,13.30
2018,05,24,07,16,13.30
2018,05,24,07,17,13.30
2018,05,24,07,18,13.30
2018,05,24,07,19,13.30
2018,05,24,07,20,13.30
2018,05,24,07,21,13.30
2018,05,24,07,22,13.40
2018,05,24,07,23,13.40
2018,05,24,07,24,13.40
2018,05,24,07,25,13.50
2018,05,24,07,26,13.50
2018,05,24,07,27,13.50
2018,05,24,07,28,13.50
2018,05,24,07,29,13.50
2018,05,24,07,30,13.50
2018,05,24,07,31,13.50
2018,05,24,07,32,13.50
2018,05,24,07,33,13.50
2018,05,24,07,34,13.50
2018,05,24,07,35,13.60
2018,05,24,07,36,13.60
2018,05,24,07,37,13.60
2018,05,24,07,38,13.70
2018,05,24,07,39,13.70
2018,05,24,07,40,13.70
2018,05,24,07,41,13.70
2018,05,24,07,42,13.70
2018,05,24,07,43,13.60
2018,05,24,07,44,13.60
2018,05,24,07,45,13.60
2018,05,24,07,46,13.70
2018,05,24,07,47,13.70
2018,05,24,07,48,13.70
2018,05,24,07,49,13.70
2018,05,24,07,50,13.70
2018,05,24,07,51,13.70
2018,05,24,07,52,13.80
2018,05,24,07,53,13.80
2018,05,24,07,54,13.90
2018,05,24,07,55,13.90
2018,05,24,07,56,14.00
2018,05,24,07,57,14.00
2018,05,24,07,58,14.10
2018,05,24,07,59,14.10
2018,05,24,08,00,14.20
2018,05,24,08,01,14.20
2018,05,24,08,02,14.10
2018,05,24,08,03,14.00
2018,05,24,08,04,13.90
2018,05,24,08,05,13.90
2018,05,24,08,06,13.90
2018,05,24,08,07,13.80
2018,05,24,08,08,13.80
2018,05,24,08,09,13.90
2018,05,24,08,10,13.80
2018,05,24,08,11,13.80
2018,05,24,08,12,13.80
2018,05,24,08,13,13.80
2018,05,24,08,14,13.80
2018,05,24,08,15,13.80
2018,05,24,08,16,13.90
2018,05,24,08,17,13.90
2018,05,24,08,18,13.90
2018,05,24,08,19,13.90
2018,05,24,08,20,13.80
2018,05,24,08,21,13.90
2018,05,24,08,22,13.90
2018,05,24,08,23,14.00
2018,05,24,08,24,14.10
2018,05,24,08,25,14.10
2018,05,24,08,26,14.10
2018,05,24,08,27,14.10
2018,05,24,08,28,14.20
2018,05,24,08,29,14.20
2018,05,24,08,30,14.20
2018,05,24,08,31,14.20
2018,05,24,08,32,14.20
2018,05,24,08,33,14.30
2018,05,24,08,34,14.30
2018,05,24,08,35,14.30
2018,05,24,08,36,14.20
2018,05,24,08,37,14.20
2018,05,24,08,38,14.10
2018,05,24,08,39,14.00
2018,05,24,08,40,14.00
2018,05,24,08,41,14.00
2018,05,24,08,42,14.00
2018,05,24,08,43,14.10
2018,05,24,08,44,14.20
2018,05,24,08,45,14.20
2018,05,24,08,46,14.20
2018,05,24,08,47,14.30
2018,05,24,08,48,14.40
2018,05,24,08,49,14.40
2018,05,24,08,50,14.30
2018,05,24,08,51,14.20
2018,05,24,08,52,14.20
2018,05,24,08,53,14.30
2018,05,24,08,54,14.30
2018,05,24,08,55,14.30
2018,05,24,08,56,14.40
2018,05,24,08,57,14.40
2018,05,24,08,58,14.40
2018,05,24,08,59,14.50
2018,05,24,09,00,14.60
2018,05,24,09,01,14.60
2018,05,24,09,02,14.60
2018,05,24,09,03,14.60
2018,05,24,09,04,14.60
2018,05,24,09,05,14.60
2018,05,24,09,06,14.60
2018,05,24,09,07,14.70
2018,05,24,09,08,14.70
2018,05,24,09,09,14.80
2018,05,24,09,10,14.80
2018,05,24,09,11,14.90
2018,05,24,09,12,14.90
2018,05,24,09,13,14.90
2018,05,24,09,14,14.80
2018,05,24,09,15,14.90
2018,05,24,09,16,14.90
2018,05,24,09,17,15.00
2018,05,24,09,18,15.10
2018,05,24,09,19,15.10
2018,05,24,09,20,15.10
2018,05,24,09,21,15.10
2018,05,24,09,22,15.20
2018,05,24,09,23,15.20
2018,05,24,09,24,15.20
2018,05,24,09,25,15.20
2018,05,24,09,26,15.20
2018,05,24,09,27,15.20
2018,05,24,09,28,15.10
2018,05,24,09,29,15.10
2018,05,24,09,30,15.10
2018,05,24,09,31,15.10
2018,05,24,09,32,15.10
2018,05,24,09,33,15.00
2018,05,24,09,34,15.00
2018,05,24,09,35,14.90
2018,05,24,09,36,14.80
2018,05,24,09,37,14.90
2018,05,24,09,38,14.90
2018,05,24,09,39,15.00
2018,05,24,09,40,15.10
2018,05,24,09,41,15.20
2018,05,24,09,42,15.30
2018,05,24,09,43,15.40
2018,05,24,09,44,15.40
2018,05,24,09,45,15.40
2018,05,24,09,46,15.50
2018,05,24,09,47,15.50
2018,05,24,09,48,15.50
2018,05,24,09,49,15.60
2018,05,24,09,50,15.70
2018,05,24,09,51,15.80
2018,05,24,09,52,15.80
2018,05,24,09,53,15.90
2018,05,24,09,54,15.90
2018,05,24,09,55,16.10
2018,05,24,09,56,16.10
2018,05,24,09,57,16.20
2018,05,24,09,58,16.20
2018,05,24,09,59,16.20
2018,05,24,10,00,16.20
2018,05,24,10,01,16.10
2018,05,24,10,02,16.00
2018,05,24,10,03,15.90
2018,05,24,10,04,15.90
2018,05,24,10,05,15.80
2018,05,24,10,06,15.80
2018,05,24,10,07,15.80
2018,05,24,10,08,15.80
2018,05,24,10,09,15.80
2018,05,24,10,10,15.90
2018,05,24,10,11,16.00
2018,05,24,10,12,15.90
2018,05,24,10,13,16.00
2018,05,24,10,14,16.10
2018,05,24,10,15,16.10
2018,05,24,10,16,16.00
2018,05,24,10,17,15.90
2018,05,24,10,18,15.80
2018,05,24,10,19,15.80
2018,05,24,10,20,15.80
2018,05,24,10,21,15.80
2018,05,24,10,22,15.80
2018,05,24,10,23,15.80
2018,05,24,10,24,16.00
2018,05,24,10,25,16.10
2018,05,24,10,26,16.20
2018,05,24,10,27,16.30
2018,05,24,10,28,16.50
2018,05,24,10,29,16.60
2018,05,24,10,30,16.60
2018,05,24,10,31,16.50
2018,05,24,10,32,16.40
2018,05,24,10,33,16.40
2018,05,24,10,34,16.40
2018,05,24,10,35,16.50
2018,05,24,10,36,16.60
2018,05,24,10,37,16.70
2018,05,24,10,38,16.90
2018,05,24,10,39,17.00
2018,05,24,10,40,17.10
2018,05,24,10,41,17.30
2018,05,24,10,42,17.30
2018,05,24,10,43,17.30
2018,05,24,10,44,17.30
2018,05,24,10,45,17.30
2018,05,24,10,46,17.30
2018,05,24,10,47,17.30
2018,05,24,10,48,17.30
2018,05,24,10,49,17.40
2018,05,24,10,50,17.50
2018,05,24,10,51,17.70
2018,05,24,10,52,17.70
2018,05,24,10,53,17.80
2018,05,24,10,54,17.90
2018,05,24,10,55,17.90
2018,05,24,10,56,18.10
2018,05,24,10,57,18.20
2018,05,24,10,58,18.10
2018,05,24,10,59,18.10
2018,05,24,11,00,18.10
2018,05,24,11,01,18.00
2018,05,24,11,02,17.90
2018,05,24,11,03,17.80
2018,05,24,11,04,17.70
2018,05,24,11,05,17.60
2018,05,24,11,06,17.40
2018,05,24,11,07,17.30
2018,05,24,11,08,17.20
2018,05,24,11,09,17.10
2018,05,24,11,10,17.10
2018,05,24,11,11,17.20
2018,05,24,11,12,17.20
2018,05,24,11,13,17.30
2018,05,24,11,14,17.30
2018,05,24,11,15,17.30
2018,05,24,11,16,17.40
2018,05,24,11,17,17.50
2018,05,24,11,18,17.60
2018,05,24,11,19,17.80
2018,05,24,11,20,17.90
2018,05,24,11,21,17.90
2018,05,24,11,22,17.80
2018,05,24,11,23,17.70
2018,05,24,11,24,17.70
2018,05,24,11,25,17.50
2018,05,24,11,26,17.40
2018,05,24,11,27,17.40
2018,05,24,11,28,17.50
2018,05,24,11,29,17.70
2018,05,24,11,30,17.80
2018,05,24,11,31,18.00
2018,05,24,11,32,18.30
2018,05,24,11,33,18.40
2018,05,24,11,34,18.40
2018,05,24,11,35,18.50
2018,05,24,11,36,18.70
2018,05,24,11,37,18.90
2018,05,24,11,38,18.90
2018,05,24,11,39,18.90
2018,05,24,11,40,18.80
2018,05,24,11,41,18.70
2018,05,24,11,42,18.70
2018,05,24,11,43,18.70
2018,05,24,11,44,18.70
2018,05,24,11,45,18.80
2018,05,24,11,46,18.90
2018,05,24,11,47,19.00
2018,05,24,11,48,19.10
2018,05,24,11,49,19.30
2018,05,24,11,50,19.30
2018,05,24,11,51,19.10
2018,05,24,11,52,18.90
2018,05,24,11,53,18.70
2018,05,24,11,54,18.60
2018,05,24,11,55,18.60
2018,05,24,11,56,18.70
2018,05,24,11,57,18.70
2018,05,24,11,58,18.70
2018,05,24,11,59,18.60
2018,05,24,12,00,18.60
2018,05,24,12,01,18.50
2018,05,24,12,02,18.50
2018,05,24,12,03,18.40
2018,05,24,12,04,18.50
2018,05,24,12,05,18.70
2018,05,24,12,06,18.90
2018,05,24,12,07,19.10
2018,05,24,12,08,19.20
2018,05,24,12,09,19.30
2018,05,24,12,10,19.30
2018,05,24,12,11,19.30
2018,05,24,12,12,19.30
2018,05,24,12,13,19.40
2018,05,24,12,14,19.50
2018,05,24,12,15,19.60
2018,05,24,12,16,19.60
2018,05,24,12,17,19.60
2018,05,24,12,18,19.50
2018,05,24,12,19,19.50
2018,05,24,12,20,19.60
2018,05,24,12,21,19.50
2018,05,24,12,22,19.60
2018,05,24,12,23,19.60
2018,05,24,12,24,19.60
2018,05,24,12,25,19.60
2018,05,24,12,26,19.60
2018,05,24,12,27,19.50
2018,05,24,12,28,19.50
2018,05,24,12,29,19.40
2018,05,24,12,30,19.40
2018,05,24,12,31,19.30
2018,05,24,12,32,19.10
2018,05,24,12,33,19.10
2018,05,24,12,34,18.90
2018,05,24,12,35,18.80
2018,05,24,12,36,18.80
2018,05,24,12,37,18.80
2018,05,24,12,38,18.70
2018,05,24,12,39,18.50
2018,05,24,12,40,18.40
2018,05,24,12,41,18.40
2018,05,24,12,42,18.30
2018,05,24,12,43,18.20
2018,05,24,12,44,18.20
2018,05,24,12,45,18.10
2018,05,24,12,46,18.20
2018,05,24,12,47,18.20
2018,05,24,12,48,18.30
2018,05,24,12,49,18.40
2018,05,24,12,50,18.50
2018,05,24,12,51,18.40
2018,05,24,12,52,18.30
2018,05,24,12,53,18.30
2018,05,24,12,54,18.10
2018,05,24,12,55,18.00
2018,05,24,12,56,17.90
2018,05,24,12,57,17.90
2018,05,24,12,58,17.90
2018,05,24,12,59,17.90
2018,05,24,13,00,18.00
2018,05,24,13,01,18.10
2018,05,24,13,02,18.10
2018,05,24,13,03,18.20
2018,05,24,13,04,18.30
2018,05,24,13,05,18.50
2018,05,24,13,06,18.60
2018,05,24,13,07,18.70
2018,05,24,13,08,18.60
2018,05,24,13,09,18.40
2018,05,24,13,10,18.20
2018,05,24,13,11,18.00
2018,05,24,13,12,17.90
2018,05,24,13,13,17.90
2018,05,24,13,14,18.10
2018,05,24,13,15,18.10
2018,05,24,13,16,17.90
2018,05,24,13,17,17.80
2018,05,24,13,18,17.70
2018,05,24,13,19,17.80
2018,05,24,13,20,17.90
2018,05,24,13,21,18.00
2018,05,24,13,22,18.10
2018,05,24,13,23,18.10
2018,05,24,13,24,18.10
2018,05,24,13,25,18.20
2018,05,24,13,26,18.20
2018,05,24,13,27,18.20
2018,05,24,13,28,18.20
2018,05,24,13,29,18.30
2018,05,24,13,30,18.50
2018,05,24,13,31,18.70
2018,05,24,13,32,18.80
2018,05,24,13,33,19.00
2018,05,24,13,34,19.20
2018,05,24,13,35,19.30
2018,05,24,13,36,19.40
2018,05,24,13,37,19.40
2018,05,24,13,38,19.30
2018,05,24,13,39,19.30
2018,05,24,13,40,19.40
2018,05,24,13,41,19.40
2018,05,24,13,42,19.60
2018,05,24,13,43,19.70
2018,05,24,13,44,19.80
2018,05,24,13,45,19.90
2018,05,24,13,46,20.00
2018,05,24,13,47,20.00
2018,05,24,13,48,20.00
2018,05,24,13,49,20.20
2018,05,24,13,50,20.30
2018,05,24,13,51,20.20
2018,05,24,13,52,20.20
2018,05,24,13,53,20.20
2018,05,24,13,54,20.10
2018,05,24,13,55,20.00
2018,05,24,13,56,19.90
2018,05,24,13,57,19.90
2018,05,24,13,58,19.90
2018,05,24,13,59,20.00
2018,05,24,14,00,20.20
2018,05,24,14,01,20.30
2018,05,24,14,02,20.20
2018,05,24,14,03,20.00
2018,05,24,14,04,19.80
2018,05,24,14,05,19.60
2018,05,24,14,06,19.60
2018,05,24,14,07,19.60
2018,05,24,14,08,19.50
2018,05,24,14,09,19.50
2018,05,24,14,10,19.50
2018,05,24,14,11,19.50
2018,05,24,14,12,19.60
2018,05,24,14,13,19.60
2018,05,24,14,14,19.60
2018,05,24,14,15,19.60
2018,05,24,14,16,19.40
2018,05,24,14,17,19.30
2018,05,24,14,18,19.10
2018,05,24,14,19,19.10
2018,05,24,14,20,19.10
2018,05,24,14,21,19.10
2018,05,24,14,22,18.90
2018,05,24,14,23,18.80
2018,05,24,14,24,18.70
2018,05,24,14,25,18.50
2018,05,24,14,26,18.40
2018,05,24,14,27,18.50
2018,05,24,14,28,18.60
2018,05,24,14,29,18.70
2018,05,24,14,30,18.90
2018,05,24,14,31,19.10
2018,05,24,14,32,19.20
2018,05,24,14,33,19.20
2018,05,24,14,34,19.30
2018,05,24,14,35,19.40
2018,05,24,14,36,19.50
2018,05,24,14,37,19.40
2018,05,24,14,38,19.30
2018,05,24,14,39,19.20
2018,05,24,14,40,19.20
2018,05,24,14,41,19.20
2018,05,24,14,42,19.30
2018,05,24,14,43,19.40
2018,05,24,14,44,19.60
2018,05,24,14,45,19.60
2018,05,24,14,46,19.60
2018,05,24,14,47,19.70
2018,05,24,14,48,19.90
2018,05,24,14,49,20.00
2018,05,24,14,50,20.10
2018,05,24,14,51,20.00
2018,05,24,14,52,20.00
2018,05,24,14,53,20.10
2018,05,24,14,54,20.00
2018,05,24,14,55,19.90
2018,05,24,14,56,19.90
2018,05,24,14,57,20.10
2018,05,24,14,58,20.30
2018,05,24,14,59,20.40
2018,05,24,15,00,20.30
2018,05,24,15,01,20.10
2018,05,24,15,02,20.00
2018,05,24,15,03,19.90
2018,05,24,15,04,19.90
2018,05,24,15,05,19.90
2018,05,24,15,06,19.90
2018,05,24,15,07,20.00
2018,05,24,15,08,20.10
2018,05,24,15,09,20.20
2018,05,24,15,10,20.30
2018,05,24,15,11,20.40
2018,05,24,15,12,20.40
2018,05,24,15,13,20.40
2018,05,24,15,14,20.20
2018,05,24,15,15,20.10
2018,05,24,15,16,20.10
2018,05,24,15,17,20.10
2018,05,24,15,18,20.00
2018,05,24,15,19,19.90
2018,05,24,15,20,19.90
2018,05,24,15,21,19.60
2018,05,24,15,22,19.40
2018,05,24,15,23,19.40
2018,05,24,15,24,19.40
2018,05,24,15,25,19.50
2018,05,24,15,26,19.40
2018,05,24,15,27,19.50
2018,05,24,15,28,19.60
2018,05,24,15,29,19.70
2018,05,24,15,30,19.80
2018,05,24,15,31,19.90
2018,05,24,15,32,20.00
2018,05,24,15,33,20.10
2018,05,24,15,34,20.10
2018,05,24,15,35,19.90
2018,05,24,15,36,19.80
2018,05,24,15,37,19.80
2018,05,24,15,38,19.90
2018,05,24,15,39,20.20
2018,05,24,15,40,20.40
2018,05,24,15,41,20.60
2018,05,24,15,42,20.80
2018,05,24,15,43,20.90
2018,05,24,15,44,21.00
2018,05,24,15,45,21.10
2018,05,24,15,46,21.20
2018,05,24,15,47,21.20
2018,05,24,15,48,21.00
2018,05,24,15,49,21.00
2018,05,24,15,50,21.10
2018,05,24,15,51,21.00
2018,05,24,15,52,20.80
2018,05,24,15,53,20.60
2018,05,24,15,54,20.50
2018,05,24,15,55,20.50
2018,05,24,15,56,20.50
2018,05,24,15,57,20.60
2018,05,24,15,58,20.70
2018,05,24,15,59,20.90
2018,05,24,16,00,21.00
2018,05,24,16,01,21.10
2018,05,24,16,02,21.10
2018,05,24,16,03,21.10
2018,05,24,16,04,21.20
2018,05,24,16,05,21.30
2018,05,24,16,06,21.30
2018,05,24,16,07,21.40
2018,05,24,16,08,21.50
2018,05,24,16,09,21.20
2018,05,24,16,10,21.10
2018,05,24,16,11,21.10
2018,05,24,16,12,21.10
2018,05,24,16,13,21.10
2018,05,24,16,14,20.90
2018,05,24,16,15,20.80
2018,05,24,16,16,20.80
2018,05,24,16,17,20.80
2018,05,24,16,18,20.80
2018,05,24,16,19,20.80
2018,05,24,16,20,20.70
2018,05,24,16,21,20.70
2018,05,24,16,22,20.60
2018,05,24,16,23,20.60
2018,05,24,16,24,20.60
2018,05,24,16,25,20.70
2018,05,24,16,26,20.70
2018,05,24,16,27,20.80
2018,05,24,16,28,20.90
2018,05,24,16,29,21.00
2018,05,24,16,30,21.10
2018,05,24,16,31,21.20
2018,05,24,16,32,21.20
2018,05,24,16,33,21.20
2018,05,24,16,34,21.30
2018,05,24,16,35,21.30
2018,05,24,16,36,21.40
2018,05,24,16,37,21.40
2018,05,24,16,38,21.50
2018,05,24,16,39,21.50
2018,05,24,16,40,21.30
2018,05,24,16,41,21.00
2018,05,24,16,42,20.80
2018,05,24,16,43,20.80
2018,05,24,16,44,20.80
2018,05,24,16,45,21.00
2018,05,24,16,46,21.10
2018,05,24,16,47,21.20
2018,05,24,16,48,21.20
2018,05,24,16,49,21.30
2018,05,24,16,50,21.30
2018,05,24,16,51,21.20
2018,05,24,16,52,21.20
2018,05,24,16,53,21.10
2018,05,24,16,54,21.00
2018,05,24,16,55,20.80
2018,05,24,16,56,20.60
2018,05,24,16,57,20.50
2018,05,24,16,58,20.60
2018,05,24,16,59,20.60
2018,05,24,17,00,20.50
2018,05,24,17,01,20.30
2018,05,24,17,02,20.40
2018,05,24,17,03,20.40
2018,05,24,17,04,20.40
2018,05,24,17,05,20.50
2018,05,24,17,06,20.60
2018,05,24,17,07,20.70
2018,05,24,17,08,20.70
2018,05,24,17,09,20.80
2018,05,24,17,10,20.90
2018,05,24,17,11,21.00
2018,05,24,17,12,21.00
2018,05,24,17,13,21.10
2018,05,24,17,14,21.00
2018,05,24,17,15,20.80
2018,05,24,17,16,20.70
2018,05,24,17,17,20.50
2018,05,24,17,18,20.40
2018,05,24,17,19,20.20